owner,sensor,date,latitude,longitude,vertical_datum,wind_speed,wind_to_direction,wind_speed_of_gust,qcFlag 
TABS,ioos:station:wmo:42045:1,2016-05-03T15:00:00Z,26.2168,-96.4998,4.0,1.5,102.0,3.9,'1111122,1111122,1111122' 
TABS,ioos:station:wmo:42045:1,2016-05-03T15:30:00Z,26.2168,-96.4998,4.0,1.46,97.4,3.37,'1111122,1111122,1111122' 
TABS,ioos:station:wmo:42045:1,2016-05-04T15:00:00Z,26.2168,-96.4998,4.0,0.38,272.4,1.87,'1111122,1111122,1111122' 
TABS,ioos:station:wmo:42045:1,2016-05-04T17:00:00Z,26.2168,-96.4998,4.0,0.19,184.7,1.81,'1111122,1111122,1111122' 
TABS,ioos:station:wmo:42045:1,2016-05-04T17:30:00Z,26.2168,-96.4998,4.0,0.39,155.4,2.27,'1111122,1111122,1111122' 
TABS,ioos:station:wmo:42045:1,2016-05-04T20:00:00Z,26.2168,-96.4998,4.0,0.48,172.9,2.01,'1111122,1111122,1111122' 
TABS,ioos:station:wmo:42045:1,2016-05-04T21:00:00Z,26.2168,-96.4998,4.0,0.64,150.4,2.22,'1111122,1111122,1111122' 
TABS,ioos:station:wmo:42045:1,2016-05-04T21:30:00Z,26.2168,-96.4998,4.0,0.54,162.3,2.37,'1111122,1111122,1111122' 
TABS,ioos:station:wmo:42045:1,2016-05-04T23:00:00Z,26.2168,-96.4998,4.0,0.19,166.0,0.94,'1111122,1111122,1111122' 
TABS,ioos:station:wmo:42045:1,2016-05-04T23:30:00Z,26.2168,-96.4998,4.0,0.35,160.9,1.48,'1111122,1111122,1111122' 
TABS,ioos:station:wmo:42045:1,2016-05-05T05:00:00Z,26.2168,-96.4998,4.0,0.09,258.2,0.36,'1111122,1111122,1111122' 
TABS,ioos:station:wmo:42045:1,2016-05-05T05:30:00Z,26.2168,-96.4998,4.0,0.29,280.4,0.6,'1111122,1111122,1111122' 
TABS,ioos:station:wmo:42045:1,2016-05-05T07:00:00Z,26.2168,-96.4998,4.0,0.21,262.2,1.32,'1111122,1111122,1111122' 
TABS,ioos:station:wmo:42045:1,2016-05-05T08:00:00Z,26.2168,-96.4998,4.0,0.52,289.4,1.12,'1111122,1111122,1111122' 
TABS,ioos:station:wmo:42045:1,2016-05-05T08:30:00Z,26.2168,-96.4998,4.0,0.64,290.2,1.17,'1111122,1111122,1111122' 
TABS,ioos:station:wmo:42045:1,2016-05-05T10:00:00Z,26.2168,-96.4998,4.0,0.18,262.8,0.97,'1111122,1111122,1111122' 
TABS,ioos:station:wmo:42045:1,2016-05-05T12:00:00Z,26.2168,-96.4998,4.0,0.48,96.7,1.43,'1111122,1111122,1111122' 
TABS,ioos:station:wmo:42045:1,2016-05-05T13:00:00Z,26.2168,-96.4998,4.0,0.76,95.8,1.82,'1111122,1111122,1111122' 
TABS,ioos:station:wmo:42045:1,2016-05-05T14:00:00Z,26.2168,-96.4998,4.0,1.2,104.3,2.39,'1111122,1111122,1111122' 
TABS,ioos:station:wmo:42045:1,2016-05-05T15:00:00Z,26.2168,-96.4998,4.0,1.1,97.6,2.87,'1111122,1111122,1111122' 
TABS,ioos:station:wmo:42045:1,2016-05-05T16:00:00Z,26.2168,-96.4998,4.0,1.17,101.8,2.1,'1111122,1111122,1111122' 
TABS,ioos:station:wmo:42045:1,2016-05-05T17:00:00Z,26.2168,-96.4998,4.0,0.95,99.4,2.74,'1111122,1111122,1111122' 
TABS,ioos:station:wmo:42045:1,2016-05-05T17:30:00Z,26.2168,-96.4998,4.0,0.59,123.4,1.96,'1111122,1111122,1111122' 
TABS,ioos:station:wmo:42045:1,2016-05-05T19:00:00Z,26.2168,-96.4998,4.0,0.88,125.1,2.7,'1111122,1111122,1111122' 
TABS,ioos:station:wmo:42045:1,2016-05-05T20:00:00Z,26.2168,-96.4998,4.0,0.99,124.5,2.45,'1111122,1111122,1111122' 
TABS,ioos:station:wmo:42045:1,2016-05-05T21:00:00Z,26.2168,-96.4998,4.0,1.53,102.8,3.36,'1111122,1111122,1111122' 
TABS,ioos:station:wmo:42045:1,2016-05-05T23:00:00Z,26.2168,-96.4998,4.0,0.43,154.5,1.68,'1111122,1111122,1111122' 
TABS,ioos:station:wmo:42045:1,2016-05-05T23:30:00Z,26.2168,-96.4998,4.0,0.75,112.9,2.92,'1111122,1111122,1111122' 
TABS,ioos:station:wmo:42045:1,2016-05-06T06:00:00Z,26.2168,-96.4998,4.0,0.19,97.9,0.43,'1111122,1111122,1111122' 
TABS,ioos:station:wmo:42045:1,2016-05-06T09:00:00Z,26.2168,-96.4998,4.0,0.15,99.2,0.51,'1111122,1111122,1111122' 
TABS,ioos:station:wmo:42045:1,2016-05-06T10:00:00Z,26.2168,-96.4998,4.0,0.06,178.6,0.35,'1111122,1111122,1111122' 
TABS,ioos:station:wmo:42045:1,2016-05-06T11:00:00Z,26.2168,-96.4998,4.0,0.06,112.6,0.49,'1111122,1111122,1111122' 
TABS,ioos:station:wmo:42045:1,2016-05-06T12:00:00Z,26.2168,-96.4998,4.0,0.16,283.9,0.39,'1111122,1111122,1111122' 
TABS,ioos:station:wmo:42045:1,2016-05-06T13:30:00Z,26.2168,-96.4998,4.0,0.08,134.0,0.71,'1111122,1111122,1111122' 
TABS,ioos:station:wmo:42045:1,2016-05-06T14:30:00Z,26.2168,-96.4998,4.0,0.54,89.3,1.6,'1111122,1111122,1111122' 
TABS,ioos:station:wmo:42045:1,2016-05-06T16:00:00Z,26.2168,-96.4998,4.0,1.06,91.8,2.82,'1111122,1111122,1111122' 
TABS,ioos:station:wmo:42045:1,2016-05-06T17:00:00Z,26.2168,-96.4998,4.0,0.85,107.6,2.31,'1111122,1111122,1111122' 
TABS,ioos:station:wmo:42045:1,2016-05-06T18:00:00Z,26.2168,-96.4998,4.0,1.11,101.7,2.34,'1111122,1111122,1111122' 
TABS,ioos:station:wmo:42045:1,2016-05-06T19:00:00Z,26.2168,-96.4998,4.0,0.14,65.8,1.32,'1111122,1111122,1111122' 
TABS,ioos:station:wmo:42045:1,2016-05-06T20:00:00Z,26.2168,-96.4998,4.0,1.06,94.0,2.61,'1111122,1111122,1111122' 
TABS,ioos:station:wmo:42045:1,2016-05-06T21:00:00Z,26.2168,-96.4998,4.0,0.63,71.4,1.95,'1111122,1111122,1111122' 
TABS,ioos:station:wmo:42045:1,2016-05-06T22:00:00Z,26.2168,-96.4998,4.0,0.71,79.3,2.96,'1111122,1111122,1111122' 
TABS,ioos:station:wmo:42045:1,2016-05-06T22:30:00Z,26.2168,-96.4998,4.0,0.63,96.9,1.88,'1111122,1111122,1111122' 
TABS,ioos:station:wmo:42045:1,2016-05-06T23:30:00Z,26.2168,-96.4998,4.0,0.99,100.8,2.02,'1111122,1111122,1111122' 
TABS,ioos:station:wmo:42045:1,2016-05-07T06:00:00Z,26.2168,-96.4998,4.0,0.41,307.0,1.5,'1111122,1111122,1111122' 
TABS,ioos:station:wmo:42045:1,2016-05-07T07:00:00Z,26.2168,-96.4998,4.0,0.31,302.5,0.82,'1111122,1111122,1111122' 
TABS,ioos:station:wmo:42045:1,2016-05-07T08:00:00Z,26.2168,-96.4998,4.0,0.33,287.6,0.89,'1111122,1111122,1111122' 
TABS,ioos:station:wmo:42045:1,2016-05-07T09:00:00Z,26.2168,-96.4998,4.0,0.28,284.2,0.83,'1111122,1111122,1111122' 
TABS,ioos:station:wmo:42045:1,2016-05-07T10:00:00Z,26.2168,-96.4998,4.0,0.2,81.5,0.61,'1111122,1111122,1111122' 
TABS,ioos:station:wmo:42045:1,2016-05-07T11:00:00Z,26.2168,-96.4998,4.0,0.12,290.4,0.39,'1111122,1111122,1111122' 
TABS,ioos:station:wmo:42045:1,2016-05-07T12:00:00Z,26.2168,-96.4998,4.0,0.57,91.3,1.02,'1111122,1111122,1111122' 
TABS,ioos:station:wmo:42045:1,2016-05-07T12:30:00Z,26.2168,-96.4998,4.0,0.38,105.8,0.81,'1111122,1111122,1111122' 
TABS,ioos:station:wmo:42045:1,2016-05-07T14:00:00Z,26.2168,-96.4998,4.0,0.74,308.3,2.26,'1111122,1111122,1111122' 
TABS,ioos:station:wmo:42045:1,2016-05-07T14:30:00Z,26.2168,-96.4998,4.0,0.89,311.3,2.56,'1111122,1111122,1111122' 
TABS,ioos:station:wmo:42045:1,2016-05-07T15:30:00Z,26.2168,-96.4998,4.0,0.94,306.3,2.61,'1111122,1111122,1111122' 
TABS,ioos:station:wmo:42045:1,2016-05-07T17:00:00Z,26.2168,-96.4998,4.0,0.81,317.4,3.51,'1111122,1111122,1111122' 
TABS,ioos:station:wmo:42045:1,2016-05-07T18:00:00Z,26.2168,-96.4998,4.0,1.03,303.3,2.86,'1111122,1111122,1111122' 
TABS,ioos:station:wmo:42045:1,2016-05-07T19:00:00Z,26.2168,-96.4998,4.0,1.53,309.1,3.29,'1111122,1111122,1111122' 
TABS,ioos:station:wmo:42045:1,2016-05-07T20:00:00Z,26.2168,-96.4998,4.0,0.6,311.6,2.81,'1111122,1111122,1111122' 
TABS,ioos:station:wmo:42045:1,2016-05-07T22:00:00Z,26.2168,-96.4998,4.0,1.38,310.4,4.66,'1111122,1111122,1111122' 
TABS,ioos:station:wmo:42045:1,2016-05-07T23:00:00Z,26.2168,-96.4998,4.0,1.47,311.6,3.74,'1111122,1111122,1111122' 
TABS,ioos:station:wmo:42045:1,2016-05-07T23:30:00Z,26.2168,-96.4998,4.0,1.13,310.4,3.12,'1111122,1111122,1111122' 
TABS,ioos:station:wmo:42045:1,2016-05-08T06:00:00Z,26.2168,-96.4998,4.0,0.56,308.6,1.96,'1111122,1111122,1111122' 
TABS,ioos:station:wmo:42045:1,2016-05-08T09:00:00Z,26.2168,-96.4998,4.0,0.18,339.5,0.9,'1111122,1111122,1111122' 
TABS,ioos:station:wmo:42045:1,2016-05-08T09:30:00Z,26.2168,-96.4998,4.0,0.74,77.6,1.81,'1111122,1111122,1111122' 
TABS,ioos:station:wmo:42045:1,2016-05-08T11:00:00Z,26.2168,-96.4998,4.0,0.4,307.3,1.34,'1111122,1111122,1111122' 
TABS,ioos:station:wmo:42045:1,2016-05-08T11:30:00Z,26.2168,-96.4998,4.0,0.61,311.1,1.82,'1111122,1111122,1111122' 
TABS,ioos:station:wmo:42045:1,2016-05-08T13:00:00Z,26.2168,-96.4998,4.0,0.89,312.7,2.29,'1111122,1111122,1111122' 
TABS,ioos:station:wmo:42045:1,2016-05-08T13:30:00Z,26.2168,-96.4998,4.0,0.68,311.6,1.96,'1111122,1111122,1111122' 
TABS,ioos:station:wmo:42045:1,2016-05-08T15:00:00Z,26.2168,-96.4998,4.0,0.46,306.9,2.6,'1111122,1111122,1111122' 
TABS,ioos:station:wmo:42045:1,2016-05-08T16:00:00Z,26.2168,-96.4998,4.0,1.03,303.7,2.79,'1111122,1111122,1111122' 
TABS,ioos:station:wmo:42045:1,2016-05-08T17:00:00Z,26.2168,-96.4998,4.0,0.95,306.6,2.83,'1111122,1111122,1111122' 
TABS,ioos:station:wmo:42045:1,2016-05-08T18:00:00Z,26.2168,-96.4998,4.0,0.71,313.0,1.81,'1111122,1111122,1111122' 
TABS,ioos:station:wmo:42045:1,2016-05-08T20:00:00Z,26.2168,-96.4998,4.0,1.21,311.1,3.19,'1111122,1111122,1111122' 
TABS,ioos:station:wmo:42045:1,2016-05-08T20:30:00Z,26.2168,-96.4998,4.0,0.88,313.1,2.77,'1111122,1111122,1111122' 
TABS,ioos:station:wmo:42045:1,2016-05-08T22:00:00Z,26.2168,-96.4998,4.0,0.83,75.6,2.57,'1111122,1111122,1111122' 
TABS,ioos:station:wmo:42045:1,2016-05-08T23:00:00Z,26.2168,-96.4998,4.0,0.82,312.0,2.57,'1111122,1111122,1111122' 
TABS,ioos:station:wmo:42045:1,2016-05-08T23:30:00Z,26.2168,-96.4998,4.0,0.91,300.8,2.85,'1111122,1111122,1111122' 
TABS,ioos:station:wmo:42045:1,2016-05-09T05:30:00Z,26.2168,-96.4998,4.0,0.92,308.6,2.18,'1111122,1111122,1111122' 
TABS,ioos:station:wmo:42045:1,2016-05-09T07:00:00Z,26.2168,-96.4998,4.0,0.93,310.7,1.85,'1111122,1111122,1111122' 
TABS,ioos:station:wmo:42045:1,2016-05-09T08:00:00Z,26.2168,-96.4998,4.0,0.77,312.1,2.36,'1111122,1111122,1111122' 
TABS,ioos:station:wmo:42045:1,2016-05-09T09:00:00Z,26.2168,-96.4998,4.0,0.26,85.3,0.88,'1111122,1111122,1111122' 
TABS,ioos:station:wmo:42045:1,2016-05-09T11:00:00Z,26.2168,-96.4998,4.0,0.24,355.2,0.94,'1111122,1111122,1111122' 
TABS,ioos:station:wmo:42045:1,2016-05-09T11:30:00Z,26.2168,-96.4998,4.0,0.91,313.2,1.92,'1111122,1111122,1111122' 
TABS,ioos:station:wmo:42045:1,2016-05-11T20:30:00Z,26.2168,-96.4998,4.0,1.12,311.0,3.8,'1111122,1111122,1111122' 
TABS,ioos:station:wmo:42045:1,2016-05-11T21:30:00Z,26.2168,-96.4998,4.0,1.06,309.5,2.98,'1111122,1111122,1111122' 
TABS,ioos:station:wmo:42045:1,2016-05-11T23:00:00Z,26.2168,-96.4998,4.0,0.94,309.9,2.37,'1111122,1111122,1111122' 
TABS,ioos:station:wmo:42045:1,2016-05-11T23:30:00Z,26.2168,-96.4998,4.0,0.94,313.0,3.2,'1111122,1111122,1111122' 
TABS,ioos:station:wmo:42045:1,2016-05-12T06:00:00Z,26.2168,-96.4998,4.0,0.73,314.5,2.51,'1111122,1111122,1111122' 
TABS,ioos:station:wmo:42045:1,2016-05-12T07:00:00Z,26.2168,-96.4998,4.0,0.69,311.7,1.8,'1111122,1111122,1111122' 
TABS,ioos:station:wmo:42045:1,2016-05-12T08:00:00Z,26.2168,-96.4998,4.0,0.35,93.0,1.02,'1111122,1111122,1111122' 
TABS,ioos:station:wmo:42045:1,2016-05-12T08:30:00Z,26.2168,-96.4998,4.0,0.43,110.5,1.0,'1111122,1111122,1111122' 
TABS,ioos:station:wmo:42045:1,2016-05-12T10:00:00Z,26.2168,-96.4998,4.0,0.26,59.2,1.17,'1111122,1111122,1111122' 
TABS,ioos:station:wmo:42045:1,2016-05-12T10:30:00Z,26.2168,-96.4998,4.0,0.54,93.9,0.93,'1111122,1111122,1111122' 
TABS,ioos:station:wmo:42045:1,2016-05-12T13:00:00Z,26.2168,-96.4998,4.0,1.05,99.8,1.79,'1111122,1111122,1111122' 
TABS,ioos:station:wmo:42045:1,2016-05-12T14:30:00Z,26.2168,-96.4998,4.0,0.54,108.7,1.74,'1111122,1111122,1111122' 
TABS,ioos:station:wmo:42045:1,2016-05-12T15:30:00Z,26.2168,-96.4998,4.0,0.58,127.0,1.58,'1111122,1111122,1111122' 
TABS,ioos:station:wmo:42045:1,2016-05-12T17:00:00Z,26.2168,-96.4998,4.0,0.23,172.7,1.16,'1111122,1111122,1111122' 
TABS,ioos:station:wmo:42045:1,2016-05-12T18:30:00Z,26.2168,-96.4998,4.0,0.77,108.4,2.71,'1111122,1111122,1111122' 
TABS,ioos:station:wmo:42045:1,2016-05-12T19:30:00Z,26.2168,-96.4998,4.0,1.21,86.3,3.19,'1111122,1111122,1111122' 
TABS,ioos:station:wmo:42045:1,2016-05-12T21:00:00Z,26.2168,-96.4998,4.0,0.83,114.1,3.74,'1111122,1111122,1111122' 
TABS,ioos:station:wmo:42045:1,2016-05-12T23:00:00Z,26.2168,-96.4998,4.0,1.07,101.7,2.62,'1111122,1111122,1111122' 
TABS,ioos:station:wmo:42045:1,2016-05-12T23:30:00Z,26.2168,-96.4998,4.0,1.12,104.2,2.32,'1111122,1111122,1111122' 
TABS,ioos:station:wmo:42045:1,2016-05-13T06:00:00Z,26.2168,-96.4998,4.0,0.92,97.7,2.61,'1111122,1111122,1111122' 
TABS,ioos:station:wmo:42045:1,2016-05-13T10:30:00Z,26.2168,-96.4998,4.0,0.87,105.6,1.69,'1111122,1111122,1111122' 
TABS,ioos:station:wmo:42045:1,2016-05-13T13:00:00Z,26.2168,-96.4998,4.0,1.42,105.1,3.09,'1111122,1111122,1111122' 
TABS,ioos:station:wmo:42045:1,2016-05-13T14:00:00Z,26.2168,-96.4998,4.0,1.5,111.3,2.74,'1111122,1111122,1111122' 
TABS,ioos:station:wmo:42045:1,2016-05-13T15:30:00Z,26.2168,-96.4998,4.0,1.2,104.0,2.42,'1111122,1111122,1111122' 
TABS,ioos:station:wmo:42045:1,2016-05-13T16:30:00Z,26.2168,-96.4998,4.0,0.96,103.2,2.42,'1111122,1111122,1111122' 
TABS,ioos:station:wmo:42045:1,2016-05-13T17:30:00Z,26.2168,-96.4998,4.0,0.27,21.5,1.87,'1111122,1111122,1111122' 
TABS,ioos:station:wmo:42045:1,2016-05-13T19:00:00Z,26.2168,-96.4998,4.0,0.2,301.6,1.2,'1111122,1111122,1111122' 
TABS,ioos:station:wmo:42045:1,2016-05-13T20:00:00Z,26.2168,-96.4998,4.0,0.96,93.8,2.71,'1111122,1111122,1111122' 
TABS,ioos:station:wmo:42045:1,2016-05-13T20:30:00Z,26.2168,-96.4998,4.0,1.12,101.3,2.63,'1111122,1111122,1111122' 
TABS,ioos:station:wmo:42045:1,2016-05-13T22:00:00Z,26.2168,-96.4998,4.0,1.06,100.7,2.1,'1111122,1111122,1111122' 
TABS,ioos:station:wmo:42045:1,2016-05-13T22:30:00Z,26.2168,-96.4998,4.0,0.96,99.3,2.1,'1111122,1111122,1111122' 
TABS,ioos:station:wmo:42045:1,2016-05-13T23:30:00Z,26.2168,-96.4998,4.0,1.21,102.2,2.69,'1111122,1111122,1111122' 
TABS,ioos:station:wmo:42045:1,2016-05-14T06:00:00Z,26.2168,-96.4998,4.0,0.14,67.2,1.05,'1111122,1111122,1111122' 
TABS,ioos:station:wmo:42045:1,2016-05-14T10:00:00Z,26.2168,-96.4998,4.0,0.1,316.1,0.6,'1111122,1111122,1111122' 
TABS,ioos:station:wmo:42045:1,2016-05-14T11:00:00Z,26.2168,-96.4998,4.0,0.15,356.8,0.49,'1111122,1111122,1111122' 
TABS,ioos:station:wmo:42045:1,2016-05-14T12:00:00Z,26.2168,-96.4998,4.0,0.05,67.3,0.63,'1111122,1111122,1111122' 
TABS,ioos:station:wmo:42045:1,2016-05-14T12:30:00Z,26.2168,-96.4998,4.0,0.28,315.7,0.98,'1111122,1111122,1111122' 
TABS,ioos:station:wmo:42045:1,2016-05-14T17:00:00Z,26.2168,-96.4998,4.0,0.39,307.6,1.62,'1111122,1111122,1111122' 
TABS,ioos:station:wmo:42045:1,2016-05-14T18:00:00Z,26.2168,-96.4998,4.0,0.59,105.2,1.83,'1111122,1111122,1111122' 
TABS,ioos:station:wmo:42045:1,2016-05-14T19:00:00Z,26.2168,-96.4998,4.0,0.68,93.4,2.24,'1111122,1111122,1111122' 
TABS,ioos:station:wmo:42045:1,2016-05-14T22:00:00Z,26.2168,-96.4998,4.0,0.29,261.5,2.06,'1111122,1111122,1111122' 
TABS,ioos:station:wmo:42045:1,2016-05-14T22:30:00Z,26.2168,-96.4998,4.0,0.19,175.2,1.05,'1111122,1111122,1111122' 
TABS,ioos:station:wmo:42045:1,2016-05-14T23:30:00Z,26.2168,-96.4998,4.0,0.29,151.3,1.44,'1111122,1111122,1111122' 
TABS,ioos:station:wmo:42045:1,2016-05-15T05:30:00Z,26.2168,-96.4998,4.0,0.32,84.8,0.99,'1111122,1111122,1111122' 
TABS,ioos:station:wmo:42045:1,2016-05-15T07:00:00Z,26.2168,-96.4998,4.0,0.2,108.8,0.53,'1111122,1111122,1111122' 
TABS,ioos:station:wmo:42045:1,2016-05-15T09:00:00Z,26.2168,-96.4998,4.0,0.35,161.7,0.77,'1111122,1111122,1111122' 
TABS,ioos:station:wmo:42045:1,2016-05-15T09:30:00Z,26.2168,-96.4998,4.0,0.49,132.7,1.32,'1111122,1111122,1111122' 
TABS,ioos:station:wmo:42045:1,2016-05-15T12:00:00Z,26.2168,-96.4998,4.0,0.53,97.9,1.67,'1111122,1111122,1111122' 
TABS,ioos:station:wmo:42045:1,2016-05-15T12:30:00Z,26.2168,-96.4998,4.0,0.85,100.8,1.93,'1111122,1111122,1111122' 
TABS,ioos:station:wmo:42045:1,2016-05-15T13:30:00Z,26.2168,-96.4998,4.0,1.07,108.1,2.23,'1111122,1111122,1111122' 
TABS,ioos:station:wmo:42045:1,2016-05-15T14:30:00Z,26.2168,-96.4998,4.0,1.18,107.5,2.6,'1111122,1111122,1111122' 
TABS,ioos:station:wmo:42045:1,2016-05-15T17:00:00Z,26.2168,-96.4998,4.0,1.47,102.8,2.58,'1111122,1111122,1111122' 
TABS,ioos:station:wmo:42045:1,2016-05-15T18:00:00Z,26.2168,-96.4998,4.0,1.4,105.0,3.06,'1111122,1111122,1111122' 
TABS,ioos:station:wmo:42045:1,2016-05-15T18:30:00Z,26.2168,-96.4998,4.0,1.23,107.9,2.71,'1111122,1111122,1111122' 
TABS,ioos:station:wmo:42045:1,2016-05-15T20:30:00Z,26.2168,-96.4998,4.0,1.7,108.3,2.96,'1111122,1111122,1111122' 
TABS,ioos:station:wmo:42045:1,2016-05-15T21:30:00Z,26.2168,-96.4998,4.0,1.16,111.3,2.01,'1111122,1111122,1111122' 
TABS,ioos:station:wmo:42045:1,2016-05-15T23:00:00Z,26.2168,-96.4998,4.0,0.32,329.8,2.81,'1111122,1111122,1111122' 
TABS,ioos:station:wmo:42045:1,2016-05-15T23:30:00Z,26.2168,-96.4998,4.0,0.45,318.2,1.93,'1111122,1111122,1111122' 
TABS,ioos:station:wmo:42045:1,2016-05-16T06:00:00Z,26.2168,-96.4998,4.0,0.9,111.3,1.82,'1111122,1111122,1111122' 
TABS,ioos:station:wmo:42045:1,2016-05-16T11:00:00Z,26.2168,-96.4998,4.0,0.69,91.6,1.26,'1111122,1111122,1111122' 
TABS,ioos:station:wmo:42045:1,2016-05-16T12:00:00Z,26.2168,-96.4998,4.0,1.0,93.6,1.87,'1111122,1111122,1111122' 
TABS,ioos:station:wmo:42045:1,2016-05-16T12:30:00Z,26.2168,-96.4998,4.0,1.59,96.9,3.24,'1111122,1111122,1111122' 
TABS,ioos:station:wmo:42045:1,2016-05-16T13:30:00Z,26.2168,-96.4998,4.0,1.19,104.2,2.39,'1111122,1111122,1111122' 
TABS,ioos:station:wmo:42045:1,2016-05-16T14:30:00Z,26.2168,-96.4998,4.0,0.97,105.6,1.66,'1111122,1111122,1111122' 
TABS,ioos:station:wmo:42045:1,2016-05-16T16:00:00Z,26.2168,-96.4998,4.0,0.3,339.2,1.77,'1111122,1111122,1111122' 
TABS,ioos:station:wmo:42045:1,2016-05-16T16:30:00Z,26.2168,-96.4998,4.0,0.65,77.2,1.64,'1111122,1111122,1111122' 
TABS,ioos:station:wmo:42045:1,2016-05-16T18:00:00Z,26.2168,-96.4998,4.0,0.7,88.8,3.37,'1111122,1111122,1111122' 
TABS,ioos:station:wmo:42045:1,2016-05-16T20:00:00Z,26.2168,-96.4998,4.0,1.53,83.3,3.88,'1111122,1111122,1111122' 
TABS,ioos:station:wmo:42045:1,2016-05-16T22:00:00Z,26.2168,-96.4998,4.0,1.47,85.3,3.28,'1111122,1111122,1111122' 
TABS,ioos:station:wmo:42045:1,2016-05-16T23:00:00Z,26.2168,-96.4998,4.0,1.06,86.1,3.66,'1111122,1111122,1111122' 
TABS,ioos:station:wmo:42045:1,2016-05-16T23:30:00Z,26.2168,-96.4998,4.0,1.86,93.0,3.76,'1111122,1111122,1111122' 
TABS,ioos:station:wmo:42045:1,2016-05-17T04:00:00Z,26.2168,-96.4998,4.0,1.11,99.6,2.03,'1111122,1111122,1111122' 
TABS,ioos:station:wmo:42045:1,2016-05-17T06:00:00Z,26.2168,-96.4998,4.0,0.49,114.2,0.94,'1111122,1111122,1111122' 
TABS,ioos:station:wmo:42045:1,2016-05-17T07:00:00Z,26.2168,-96.4998,4.0,0.25,116.7,0.65,'1111122,1111122,1111122' 
TABS,ioos:station:wmo:42045:1,2016-05-17T09:00:00Z,26.2168,-96.4998,4.0,0.85,110.5,1.72,'1111122,1111122,1111122' 
TABS,ioos:station:wmo:42045:1,2016-05-17T09:30:00Z,26.2168,-96.4998,4.0,0.42,104.4,1.16,'1111122,1111122,1111122' 
TABS,ioos:station:wmo:42045:1,2016-05-17T11:00:00Z,26.2168,-96.4998,4.0,1.06,110.5,2.3,'1111122,1111122,1111122' 
TABS,ioos:station:wmo:42045:1,2016-05-17T11:30:00Z,26.2168,-96.4998,4.0,1.15,106.8,2.0,'1111122,1111122,1111122' 
TABS,ioos:station:wmo:42045:1,2016-05-17T13:00:00Z,26.2168,-96.4998,4.0,0.65,100.8,1.35,'1111122,1111122,1111122' 
TABS,ioos:station:wmo:42045:1,2016-05-17T14:00:00Z,26.2168,-96.4998,4.0,0.96,112.8,2.41,'1111122,1111122,1111122' 
TABS,ioos:station:wmo:42045:1,2016-05-17T16:30:00Z,26.2168,-96.4998,4.0,1.4,107.2,2.53,'1111122,1111122,1111122' 
TABS,ioos:station:wmo:42045:1,2016-05-17T18:00:00Z,26.2168,-96.4998,4.0,1.21,98.2,2.47,'1111122,1111122,1111122' 
TABS,ioos:station:wmo:42045:1,2016-05-17T18:30:00Z,26.2168,-96.4998,4.0,1.46,98.7,2.8,'1111122,1111122,1111122' 
TABS,ioos:station:wmo:42045:1,2016-05-17T20:00:00Z,26.2168,-96.4998,4.0,0.63,319.9,2.34,'1111122,1111122,1111122' 
TABS,ioos:station:wmo:42045:1,2016-05-17T22:00:00Z,26.2168,-96.4998,4.0,0.31,322.0,1.44,'1111122,1111122,1111122' 
TABS,ioos:station:wmo:42045:1,2016-05-17T23:00:00Z,26.2168,-96.4998,4.0,0.79,100.2,2.21,'1111122,1111122,1111122' 
TABS,ioos:station:wmo:42045:1,2016-05-17T23:30:00Z,26.2168,-96.4998,4.0,1.34,105.3,2.64,'1111122,1111122,1111122' 
TABS,ioos:station:wmo:42045:1,2016-05-18T06:00:00Z,26.2168,-96.4998,4.0,0.25,99.3,1.72,'1111122,1111122,1111122' 
TABS,ioos:station:wmo:42045:1,2016-05-18T07:00:00Z,26.2168,-96.4998,4.0,0.42,98.8,0.97,'1111122,1111122,1111122' 
TABS,ioos:station:wmo:42045:1,2016-05-18T08:00:00Z,26.2168,-96.4998,4.0,0.46,279.2,1.64,'1111122,1111122,1111122' 
TABS,ioos:station:wmo:42045:1,2016-05-18T10:00:00Z,26.2168,-96.4998,4.0,0.97,106.5,2.92,'1111122,1111122,1111122' 
TABS,ioos:station:wmo:42045:1,2016-05-18T11:00:00Z,26.2168,-96.4998,4.0,0.24,295.3,1.14,'1111122,1111122,1111122' 
TABS,ioos:station:wmo:42045:1,2016-05-18T12:00:00Z,26.2168,-96.4998,4.0,0.23,186.9,1.11,'1111122,1111122,1111122' 
TABS,ioos:station:wmo:42045:1,2016-05-18T13:00:00Z,26.2168,-96.4998,4.0,0.86,119.7,2.52,'1111122,1111122,1111122' 
TABS,ioos:station:wmo:42045:1,2016-05-18T15:00:00Z,26.2168,-96.4998,4.0,1.75,102.1,4.0,'1111122,1111122,1111122' 
TABS,ioos:station:wmo:42045:1,2016-05-18T16:00:00Z,26.2168,-96.4998,4.0,1.04,97.6,2.49,'1111122,1111122,1111122' 
TABS,ioos:station:wmo:42045:1,2016-05-18T17:00:00Z,26.2168,-96.4998,4.0,0.93,115.7,2.59,'1111122,1111122,1111122' 
TABS,ioos:station:wmo:42045:1,2016-05-18T19:00:00Z,26.2168,-96.4998,4.0,1.25,103.6,3.39,'1111122,1111122,1111122' 
TABS,ioos:station:wmo:42045:1,2016-05-18T21:00:00Z,26.2168,-96.4998,4.0,1.22,104.1,2.72,'1111122,1111122,1111122' 
TABS,ioos:station:wmo:42045:1,2016-05-18T23:00:00Z,26.2168,-96.4998,4.0,1.29,104.3,2.81,'1111122,1111122,1111122' 
TABS,ioos:station:wmo:42045:1,2016-05-18T23:30:00Z,26.2168,-96.4998,4.0,1.05,99.1,3.77,'1111122,1111122,1111122' 
TABS,ioos:station:wmo:42045:1,2016-05-19T04:30:00Z,26.2168,-96.4998,4.0,1.5,99.6,2.87,'1111122,1111122,1111122' 
TABS,ioos:station:wmo:42045:1,2016-05-19T06:30:00Z,26.2168,-96.4998,4.0,1.15,112.2,2.42,'1111122,1111122,1111122' 
TABS,ioos:station:wmo:42045:1,2016-05-19T07:30:00Z,26.2168,-96.4998,4.0,1.55,109.0,2.89,'1111122,1111122,1111122' 
TABS,ioos:station:wmo:42045:1,2016-05-19T09:30:00Z,26.2168,-96.4998,4.0,1.14,107.8,2.15,'1111122,1111122,1111122' 
TABS,ioos:station:wmo:42045:1,2016-05-19T11:00:00Z,26.2168,-96.4998,4.0,1.31,109.5,2.25,'1111122,1111122,1111122' 
TABS,ioos:station:wmo:42045:1,2016-05-19T11:30:00Z,26.2168,-96.4998,4.0,1.74,103.8,2.86,'1111122,1111122,1111122' 
TABS,ioos:station:wmo:42045:1,2016-05-19T12:30:00Z,26.2168,-96.4998,4.0,1.67,102.1,2.77,'1111122,1111122,1111122' 
TABS,ioos:station:wmo:42045:1,2016-05-19T14:00:00Z,26.2168,-96.4998,4.0,1.97,99.9,3.38,'1111122,1111122,1111122' 
TABS,ioos:station:wmo:42045:1,2016-05-19T16:00:00Z,26.2168,-96.4998,4.0,0.45,100.8,1.75,'1111122,1111122,1111122' 
TABS,ioos:station:wmo:42045:1,2016-05-19T17:30:00Z,26.2168,-96.4998,4.0,1.22,113.0,3.37,'1111122,1111122,1111122' 
TABS,ioos:station:wmo:42045:1,2016-05-19T19:00:00Z,26.2168,-96.4998,4.0,1.69,101.0,3.16,'1111122,1111122,1111122' 
TABS,ioos:station:wmo:42045:1,2016-05-19T19:30:00Z,26.2168,-96.4998,4.0,2.23,100.0,3.6,'1111122,1111122,1111122' 
TABS,ioos:station:wmo:42045:1,2016-05-19T21:00:00Z,26.2168,-96.4998,4.0,1.58,96.2,2.75,'1111122,1111122,1111122' 
TABS,ioos:station:wmo:42045:1,2016-05-19T23:00:00Z,26.2168,-96.4998,4.0,0.93,108.4,2.56,'1111122,1111122,1111122' 
TABS,ioos:station:wmo:42045:1,2016-05-19T23:30:00Z,26.2168,-96.4998,4.0,0.65,97.6,1.62,'1111122,1111122,1111122' 
TABS,ioos:station:wmo:42045:1,2016-05-20T05:00:00Z,26.2168,-96.4998,4.0,0.84,105.1,1.91,'1111122,1111122,1111122' 
TABS,ioos:station:wmo:42045:1,2016-05-20T05:30:00Z,26.2168,-96.4998,4.0,0.52,107.1,0.9,'1111122,1111122,1111122' 
TABS,ioos:station:wmo:42045:1,2016-05-20T07:30:00Z,26.2168,-96.4998,4.0,0.4,81.9,0.88,'1111122,1111122,1111122' 
TABS,ioos:station:wmo:42045:1,2016-05-20T08:30:00Z,26.2168,-96.4998,4.0,0.26,97.6,0.63,'1111122,1111122,1111122' 
TABS,ioos:station:wmo:42045:1,2016-05-20T10:00:00Z,26.2168,-96.4998,4.0,0.23,83.5,0.74,'1111122,1111122,1111122' 
TABS,ioos:station:wmo:42045:1,2016-05-20T11:00:00Z,26.2168,-96.4998,4.0,0.53,82.9,1.39,'1111122,1111122,1111122' 
TABS,ioos:station:wmo:42045:1,2016-05-20T12:00:00Z,26.2168,-96.4998,4.0,0.25,140.9,0.73,'1111122,1111122,1111122' 
TABS,ioos:station:wmo:42045:1,2016-05-20T13:00:00Z,26.2168,-96.4998,4.0,0.11,174.2,0.6,'1111122,1111122,1111122' 